Location: Dannhausen
(51.8650°N, 10.1026°E)
Time: 04:30:19
(UTC+00:00)

VELOX 1 - Visible Passes

Search period start: 17 October 2021 00:00
Search period end: 27 October 2021 00:00
Orbit: 626 x 642 km, 98.3° (Epoch: 16 October)

Date Brightness Start Highest point End Pass type
(mag) Time Alt. Az. Time Alt. Az. Time Alt. Az.
17 Oct ? 17:35:00 10° NNW 17:38:00 18° WNW 17:41:01 10° W visible
18 Oct ? 17:57:32 10° NNW 17:59:29 13° NW 18:01:26 10° W visible
20 Oct ? 17:03:17 10° N 17:07:11 31° WNW 17:11:06 10° SW visible
21 Oct ? 17:25:23 10° N 17:28:45 22° WNW 17:32:07 10° WSW visible
22 Oct ? 17:47:42 10° NNW 17:50:14 15° NW 17:52:47 10° W visible
23 Oct ? 18:10:47 10° NW 18:11:41 11° NW 18:12:34 10° WNW visible
24 Oct ? 16:53:46 10° N 16:57:53 38° WNW 17:01:57 10° SW visible
25 Oct ? 17:15:48 10° N 17:19:27 26° WNW 17:23:06 10° WSW visible
26 Oct ? 17:37:59 10° NNW 17:40:59 18° WNW 17:43:58 10° W visible
